Weather History for EGPH - September, 2011

Change the Weather History Date:

Saturday, September 24, 2011

  Actual Average Record
Temperature  
Mean Temperature 57 °F -  
Max Temperature 64 °F 57 °F - ()
Min Temperature 50 °F 44 °F - ()
Degree Days  
Heating Degree Days 8    
Growing Degree Days 7 (Base 50)    
Moisture  
Dew Point 50 °F    
Average Humidity 76    
Maximum Humidity 94    
Minimum Humidity 56    
Precipitation  
Precipitation 0.00 in 0.09 in - ()
Sea Level Pressure  
Sea Level Pressure 29.75 in    
Wind  
Wind Speed 11 mph ()    
Max Wind Speed 17 mph    
Max Gust Speed 29 mph    
Visibility 6.2 miles    
Events Rain    
T = Trace of Precipitation, MM = Missing Value Source: Averaged Metar Reports

Daily Weather History Graph

Daily Weather History Graph

Search for Another Location

Airport or City:

Trip Planner

Search our weather history database for the weather conditions in past years. The results will help you decide how hot, cold, wet, or windy it might be!

Date:

Astronomy

Sep. 24, 2011 Rise Set
Actual Time 7:01 AM BST 7:08 PM BST
Civil Twilight 6:24 AM BST 7:45 PM BST
Nautical Twilight 5:40 AM BST 8:29 PM BST
Astronomical Twilight 4:53 AM BST 9:15 PM BST
Moon 2:45 AM BST (9/24) 5:32 PM BST (9/24)
Length of Visible Light 13h 20m
Length of Day
12h 06m
Waning Crescent, 13% of the Moon is Illuminated
Sep 24
Waning Crescent
Sep 27
New
Oct 4
First Quarter
Oct 12
Full
Oct 20
Last Quarter

Hourly Weather History & Observations

Time (BST) Temp. Dew Point Humidity Pressure Visibility Wind Dir Wind Speed Gust Speed Precip Events Conditions
12:20 AM 57.2 °F 50.0 °F 77% 29.74 in 6.2 mi SSW 16.1 mph - N/A   Partly Cloudy
12:50 AM 57.2 °F 50.0 °F 77% 29.74 in - SSW 16.1 mph - N/A   Clear
1:20 AM 57.2 °F 50.0 °F 77% 29.74 in - South 17.3 mph - N/A   Clear
1:50 AM 57.2 °F 50.0 °F 77% 29.74 in 6.2 mi South 11.5 mph - N/A   Partly Cloudy
2:20 AM 57.2 °F 50.0 °F 77% 29.74 in - SSW 10.4 mph - N/A   Clear
2:50 AM 57.2 °F 50.0 °F 77% 29.71 in 6.2 mi SSW 11.5 mph - N/A   Unknown
3:20 AM 57.2 °F 50.0 °F 77% 29.71 in 6.2 mi SSW 11.5 mph - N/A   Mostly Cloudy
3:50 AM 57.2 °F 50.0 °F 77% 29.71 in 6.2 mi SSW 11.5 mph - N/A   Mostly Cloudy
4:20 AM 57.2 °F 50.0 °F 77% 29.71 in 6.2 mi SSW 11.5 mph - N/A   Scattered Clouds
4:50 AM 57.2 °F 50.0 °F 77% 29.68 in 6.2 mi SW 11.5 mph - N/A   Scattered Clouds
5:20 AM 57.2 °F 51.8 °F 82% 29.68 in 6.2 mi SW 16.1 mph 28.8 mph N/A   Partly Cloudy
5:50 AM 57.2 °F 51.8 °F 82% 29.71 in 6.2 mi SSW 12.7 mph - N/A Rain Light Rain
6:20 AM 57.2 °F 53.6 °F 88% 29.71 in 6.2 mi SW 11.5 mph - N/A Rain Light Rain
6:50 AM 55.4 °F 53.6 °F 94% 29.71 in 6.2 mi West 6.9 mph - N/A   Mostly Cloudy
7:20 AM 55.4 °F 53.6 °F 94% 29.71 in 6.2 mi SSW 10.4 mph - N/A   Scattered Clouds
7:50 AM 55.4 °F 51.8 °F 88% 29.71 in 6.2 mi SW 8.1 mph - N/A   Scattered Clouds
8:20 AM 53.6 °F 51.8 °F 94% 29.71 in 6.2 mi West 4.6 mph - N/A   Partly Cloudy
8:50 AM 55.4 °F 53.6 °F 94% 29.71 in 6.2 mi Variable 2.3 mph - N/A   Partly Cloudy
9:20 AM 57.2 °F 53.6 °F 88% 29.71 in 6.2 mi Variable 3.5 mph - N/A   Partly Cloudy
9:50 AM 57.2 °F 51.8 °F 82% 29.71 in 6.2 mi WSW 11.5 mph - N/A   Partly Cloudy
10:20 AM 59.0 °F 51.8 °F 77% 29.74 in 6.2 mi WSW 11.5 mph - N/A   Scattered Clouds
10:50 AM 59.0 °F 51.8 °F 77% 29.74 in 6.2 mi WSW 11.5 mph - N/A   Mostly Cloudy
11:20 AM 59.0 °F 50.0 °F 72% 29.74 in 6.2 mi SW 13.8 mph - N/A   Scattered Clouds
11:50 AM 59.0 °F 50.0 °F 72% 29.74 in 6.2 mi WSW 13.8 mph - N/A   Scattered Clouds
12:20 PM 59.0 °F 50.0 °F 72% 29.74 in 6.2 mi WSW 12.7 mph - N/A   Scattered Clouds
12:50 PM 64.4 °F 50.0 °F 59% 29.74 in 6.2 mi WSW 13.8 mph - N/A   Scattered Clouds
1:20 PM 62.6 °F 50.0 °F 63% 29.74 in 6.2 mi WSW 13.8 mph - N/A   Scattered Clouds
1:50 PM 62.6 °F 50.0 °F 63% 29.74 in 6.2 mi WSW 12.7 mph - N/A   Partly Cloudy
2:20 PM 62.6 °F 50.0 °F 63% 29.74 in 6.2 mi WSW 11.5 mph - N/A   Scattered Clouds
2:50 PM 64.4 °F 50.0 °F 59% 29.74 in 6.2 mi WSW 10.4 mph - N/A   Scattered Clouds
3:20 PM 62.6 °F 48.2 °F 59% 29.77 in 6.2 mi WSW 11.5 mph - N/A   Mostly Cloudy
3:50 PM 64.4 °F 48.2 °F 56% 29.77 in 6.2 mi SW 13.8 mph - N/A   Mostly Cloudy
4:20 PM 62.6 °F 48.2 °F 59% 29.77 in 6.2 mi SSW 12.7 mph - N/A   Scattered Clouds
4:50 PM 62.6 °F 50.0 °F 63% 29.77 in 6.2 mi WSW 9.2 mph - N/A   Scattered Clouds
5:20 PM 60.8 °F 50.0 °F 68% 29.77 in 6.2 mi WSW 10.4 mph - N/A   Partly Cloudy
5:50 PM 60.8 °F 50.0 °F 68% 29.77 in 6.2 mi SW 9.2 mph - N/A   Scattered Clouds
6:20 PM 60.8 °F 48.2 °F 63% 29.77 in 6.2 mi SW 10.4 mph - N/A   Partly Cloudy
6:50 PM 59.0 °F 46.4 °F 63% 29.77 in 6.2 mi SSW 11.5 mph - N/A   Partly Cloudy
7:20 PM 57.2 °F 46.4 °F 67% 29.80 in - SSW 11.5 mph - N/A   Clear
7:50 PM 55.4 °F 46.4 °F 72% 29.80 in - SSW 6.9 mph - N/A   Clear
8:20 PM 55.4 °F 46.4 °F 72% 29.80 in - SSW 8.1 mph - N/A   Clear
8:50 PM 51.8 °F 46.4 °F 82% 29.80 in - WSW 4.6 mph - N/A   Clear
9:20 PM 51.8 °F 48.2 °F 88% 29.80 in - WSW 8.1 mph - N/A   Clear
9:50 PM 53.6 °F 48.2 °F 82% 29.83 in - SW 9.2 mph - N/A   Clear
10:20 PM 51.8 °F 46.4 °F 82% 29.83 in - WSW 5.8 mph - N/A   Clear
10:50 PM 51.8 °F 46.4 °F 82% 29.83 in - Variable 3.5 mph - N/A   Clear
11:20 PM 50.0 °F 46.4 °F 87% 29.83 in - Variable 2.3 mph - N/A   Clear
11:50 PM 53.6 °F 48.2 °F 82% 29.83 in - SW 8.1 mph - N/A   Clear